Zurück zum Katalog

SL-16 DEB

AktivLEO
NORAD 22458·DEBRIS·🇷🇺 Russia

Gestartet Dec 25, 1992 von Baikonur Cosmodrome

Loading…

Nächste Überflüge (nächste 24 Stunden)

TLE

AktuellSource: Space-Track

Epoche: Sep 13, 2026, 16:40 UTC

1 22458U 92093EX  26256.69447690  .00000153  00000-0  12687-3 0  9996
2 22458  70.8557 356.8476 0070275 112.5708  37.0058 14.02714502721211

Verfolge SL-16 DEB in Echtzeit mit AllMySat

Download on the App Store